Home > Weather > Brussels > Past weeks

Flag for Belgium Weather for the Past 2 Weeks in Brussels, Belgium

Now
46 °F

Light rain. Partly cloudy.


Feels Like: 38 °F
Forecast: 40 / 44 °F
Wind: 25 mph from Southwest

Location: Brussels National Airport

Current Time: Feb 8, 2016 at 4:22:58 AM

Latest Report: Feb 8, 2016 at 3:20 AM


Visibility: N/A

Pressure: 29.33 "Hg

Humidity: 82%

Dew point: 41 °F

Location of BrusselsLocation

Historic Weather in Brussels — Graph

°F

Brussels Temperature Yesterday

Maximum temperature yesterday: 54 °F (at 1:20 AM)
Minimum temperature yesterday: 45 °F (at 6:50 AM)
Average temperature yesterday: 47 °F

High & Low Weather Summary for the Past Weeks

 TemperatureHumidityPressure
High57 °F (Jan 25, 12:50 PM)100% (Jan 24, 1:50 PM)30.48 "Hg (Jan 24, 1:50 PM)
Low37 °F (Jan 28, 6:50 PM)44% (Jan 25, 1:20 PM)29.33 "Hg (Feb 8, 2:50 AM)
Average47 °F84%30.04 "Hg
* Reported Jan 24 2:20 AM — Feb 8 2:50 AM, Brussels, Weather by CustomWeather, © 2016

Note: Actual official high and low records may vary slightly from our data, if they occured in-between our weather recording intervals... More about our weather records

Advertising

Brussels Weather History for the Previous 24 Hours

 ConditionsComfort  
Time TempWeatherWind HumidityBarometerVisibility
2:50 AM
Mon, Feb 8
46 °FPartly cloudy.24 mph82%29.33 "HgN/A
2:20 AM45 °FLight rain. Passing clouds.26 mph87%29.36 "HgN/A
1:50 AM46 °FLight rain. Passing clouds.26 mph76%29.39 "HgN/A
1:20 AM46 °FLight rain. Partly cloudy.26 mph76%29.42 "Hg6 mi
12:50 AM46 °FPassing clouds.24 mph71%29.42 "HgN/A
12:20 AM45 °FLight rain. Passing clouds.23 mph71%29.45 "HgN/A
11:50 PM
Sun, Feb 7
46 °FPassing clouds.21 mph66%29.47 "HgN/A
11:20 PM46 °FClear.22 mph66%29.50 "Hg10 mi
10:50 PM46 °FPassing clouds.23 mph66%29.50 "HgN/A
10:20 PM45 °FPassing clouds.18 mph71%29.53 "HgN/A
9:50 PM45 °FClear.21 mph71%29.53 "Hg10 mi
9:20 PM45 °FClear.21 mph66%29.56 "Hg10 mi
8:50 PM45 °FClear.18 mph66%29.56 "Hg10 mi
8:20 PM45 °FClear.21 mph66%29.56 "Hg10 mi
7:50 PM46 °FClear.18 mph62%29.59 "Hg10 mi
7:20 PM45 °FClear.21 mph66%29.59 "Hg10 mi
6:50 PM46 °FClear.18 mph62%29.59 "Hg10 mi
6:20 PM46 °FClear.17 mph62%29.59 "Hg10 mi
5:50 PM46 °FPassing clouds.17 mph66%29.59 "HgN/A
5:20 PM46 °FPassing clouds.18 mph66%29.59 "HgN/A
4:50 PM46 °FPassing clouds.18 mph62%29.59 "HgN/A
4:20 PM46 °FPassing clouds.21 mph62%29.59 "HgN/A
3:50 PM48 °FPassing clouds.20 mph62%29.59 "HgN/A
3:20 PM46 °FPassing clouds.18 mph66%29.59 "HgN/A
2:50 PM46 °FScattered clouds.22 mph66%29.56 "HgN/A
2:20 PM46 °FScattered clouds.22 mph66%29.56 "HgN/A
1:50 PM48 °FScattered clouds.20 mph66%29.56 "HgN/A
1:20 PM46 °FBroken clouds.18 mph66%29.56 "HgN/A
12:50 PM46 °FBroken clouds.18 mph71%29.56 "HgN/A
12:20 PM46 °FBroken clouds.22 mph71%29.53 "HgN/A
11:50 AM46 °FPartly sunny.17 mph76%29.53 "HgN/A
11:20 AM46 °FScattered clouds.18 mph76%29.53 "HgN/A
10:50 AM46 °FScattered clouds.16 mph76%29.50 "HgN/A
10:20 AM46 °FPassing clouds.15 mph76%29.50 "HgN/A
9:50 AM45 °FScattered clouds.14 mph87%29.50 "HgN/A
9:20 AM45 °FPassing clouds.13 mph87%29.50 "HgN/A
8:50 AM45 °FPassing clouds.14 mph87%29.47 "HgN/A
8:20 AM45 °FScattered clouds.9 mph87%29.47 "HgN/A
7:50 AM45 °FPassing clouds.10 mph93%29.45 "HgN/A
7:20 AM45 °FLight rain. Partly cloudy.12 mph87%29.45 "HgN/A
6:50 AM45 °FLight rain. Partly cloudy.13 mph87%29.42 "HgN/A
6:20 AM46 °FRain. Partly cloudy.16 mph87%29.39 "Hg5 mi
5:50 AM48 °FRain. Passing clouds.22 mph82%29.39 "HgN/A
5:20 AM50 °FLight rain. Passing clouds.22 mph76%29.36 "HgN/A
4:50 AM52 °FLight rain. Passing clouds.21 mph67%29.36 "HgN/A
4:20 AM52 °FPassing clouds.18 mph67%29.36 "HgN/A
Weather by CustomWeather, © 2016

See weather overviewHow to use our weather pages